Location: Gugi
(45.4667°N, 11.1000°E)
Time: 01:54:35
(UTC+00:00)

USA 215 - Pass Details

Date: 17 November 2019
Orbit: 1101 x 1107 km, 123.0° (Epoch: 11 December)

Event Time Altitude Azimuth Distance (km) Brightness Sun altitude
Exits shadow 18:14:44 52° 52° (NE) 1,353 3.4 -26.3°
Maximum altitude 18:15:31 55° 27° (NNE) 1,312 3.4 -26.5°
Drops below altitude 10° 18:21:51 10° 312° (NW) 2,964 6.1 -27.6°
Sets 18:24:23 0° 308° (NW) 3,924 6.9 -28.0°
